Theta_e
303 301 300 301 300 301 302 302 302 301 299 298 299 298 301 302 301 302 302 302 303 304 304 304 304 309 310 309 308 305 301 298 297 295 293 293 292 291 290 289 287 284 283 282
301 300 300 300 300 300 302 303 301 300 299 298 298 301 300 301 302 302 301 303 304 305 305 306 306 308 310 308 305 302 299 297 295 293 292 291 290 289 288 286 284 283 281 280
302 300 299 301 300 299 301 303 302 300 298 298 297 305 307 304 302 302 302 302 304 305 305 306 307 308 308 305 302 300 298 296 293 292 291 290 289 288 285 284 282 281 280 279
301 300 301 301 300 299 302 301 300 299 302 305 298 309 306 304 302 301 302 302 303 304 306 307 307 306 305 303 301 298 296 294 292 291 290 289 287 284 282 281 280 280 279 278
303 300 300 301 300 299 301 299 299 300 300 303 302 302 307 303 306 304 300 302 302 302 303 303 303 303 302 301 299 296 294 292 291 290 289 286 284 282 281 280 280 279 278 277
300 300 298 298 297 298 298 300 301 299 298 305 294 301 310 309 308 304 300 301 301 301 301 301 300 299 299 297 295 293 291 290 289 288 286 284 282 281 280 279 279 278 277 276
301 302 298 297 298 299 299 303 307 311 307 311 286 299 309 308 305 301 300 301 301 299 299 299 298 297 295 294 293 291 290 289 287 286 283 282 281 280 279 278 277 276 276 275
301 310 299 296 298 299 300 300 307 308 308 308 288 303 310 303 302 301 300 300 300 299 298 298 297 296 294 292 291 290 288 287 286 284 282 281 280 279 278 277 276 276 275 274
302 310 297 296 296 297 301 299 297 293 282 295 302 304 306 303 300 299 299 299 299 299 298 297 297 295 292 291 289 288 286 287 284 282 281 280 279 278 277 276 276 275 274 274
297 302 297 297 297 296 298 296 302 299 305 305 306 301 310 308 304 300 300 300 301 300 298 297 296 294 292 290 288 287 289 285 282 281 279 279 278 277 277 276 276 275 274 274
295 298 305 299 296 297 296 296 296 298 301 303 300 309 302 303 299 299 298 303 305 303 299 297 296 294 290 289 287 289 287 284 281 279 279 279 278 277 276 276 276 275 274 273
297 298 298 306 297 297 298 298 299 307 306 295 297 302 301 300 294 295 300 305 304 301 297 296 296 292 290 289 289 288 286 281 279 279 279 278 277 277 277 276 275 274 273 273
298 298 304 313 304 297 296 297 295 294 297 298 303 313 295 291 293 302 302 306 305 301 297 297 295 292 291 289 289 288 283 280 279 279 278 278 277 277 276 275 275 274 273 272
297 299 305 313 313 301 300 297 297 297 295 300 305 312 311 309 306 305 306 305 304 302 298 296 294 295 290 288 288 286 279 279 279 278 278 277 277 277 276 275 274 274 273 272
296 296 295 296 297 296 300 299 296 296 299 303 313 307 310 309 306 305 304 304 302 299 298 297 295 292 289 288 288 280 279 279 279 278 277 277 277 276 275 275 274 273 273 272
294 299 289 295 297 297 298 300 299 299 300 296 301 302 303 303 303 303 306 304 303 302 299 296 293 290 288 288 281 279 280 279 278 278 278 277 277 276 275 274 274 273 273 272
292 291 294 305 292 297 315 307 299 297 294 296 302 311 298 305 305 306 306 305 304 302 300 296 292 289 289 282 280 280 280 279 279 278 278 277 276 275 275 274 274 273 272 272
288 288 288 298 295 309 313 304 302 304 306 297 300 303 306 306 305 305 312 309 306 302 298 294 291 290 285 280 280 280 279 279 279 278 277 277 276 275 275 274 274 273 273 272
293 293 299 298 290 303 313 306 305 307 310 309 305 305 306 306 302 310 312 311 306 301 295 292 290 287 281 280 280 280 279 279 279 278 277 276 275 275 274 274 274 273 273 272
294 295 303 292 304 322 316 303 299 302 314 310 306 307 305 303 313 314 309 306 302 297 293 292 290 282 281 281 280 280 279 279 279 278 277 275 274 274 275 274 274 273 272 272
297 297 300 303 305 306 306 302 304 315 322 312 311 310 306 305 309 309 306 302 297 294 292 290 284 281 281 280 280 279 279 279 278 278 277 275 274 275 275 274 274 273 273 273
304 301 299 301 304 310 302 301 313 318 316 313 309 309 307 309 309 307 303 299 295 293 290 289 282 281 280 280 280 280 279 279 278 277 277 275 275 275 275 275 274 274 273 273
313 312 311 310 309 308 306 314 316 314 311 311 310 313 311 310 312 309 303 297 293 292 291 286 281 281 280 280 280 280 279 279 278 277 276 276 276 275 275 275 274 274 274 272
304 308 308 311 318 314 316 317 316 316 315 316 314 313 312 312 311 307 302 296 292 291 291 284 281 281 280 280 280 280 279 278 278 277 276 276 277 276 275 275 275 274 274 273
314 305 310 314 315 315 315 316 316 317 317 315 314 313 312 309 308 306 302 296 293 292 290 282 281 281 280 280 280 280 279 278 278 277 276 275 277 277 276 275 274 274 274 270
310 316 314 319 319 318 318 319 317 316 315 315 314 312 312 309 306 305 302 298 294 292 289 282 281 280 280 280 280 279 279 278 278 277 276 275 276 277 277 277 277 275 275 274
Wind_Speed
8 8 3 2 2 1 2 2 5 5 2 7 3 14 22 19 8 7 6 9 9 11 13 17 18 18 19 20 19 18 18 19 20 20 21 22 24 26 27 28 28 31 33 34
7 3 2 2 1 1 2 2 6 7 2 1 7 21 8 4 3 3 5 5 5 2 2 6 12 16 19 18 17 18 19 19 20 20 21 23 26 28 28 28 30 31 33 33
5 1 4 1 3 6 2 1 3 6 9 2 8 9 4 2 3 4 3 2 2 1 3 6 9 13 15 15 17 19 19 19 19 20 21 24 26 27 29 31 33 32 33 34
5 3 1 3 3 1 4 2 2 6 5 3 6 4 7 5 7 4 6 6 4 3 5 6 7 9 13 16 18 18 18 18 19 20 23 26 27 29 30 31 32 33 33 32
1 4 4 1 2 2 5 1 2 1 1 3 6 3 8 4 7 7 10 11 8 6 6 5 7 10 12 15 16 16 16 17 19 21 24 25 27 28 30 32 34 34 34 31
3 2 1 2 3 2 3 0 1 3 2 3 4 3 7 4 5 4 4 12 11 10 9 8 8 8 11 11 12 13 15 17 19 21 24 26 28 30 33 34 35 34 33 32
6 2 2 3 3 2 4 5 4 6 5 5 1 2 11 6 5 4 6 9 15 14 12 11 10 10 11 12 14 14 16 17 19 22 25 27 29 31 33 34 34 34 34 34
3 6 1 3 2 1 3 3 4 4 3 6 2 6 6 5 6 10 10 12 14 16 15 14 11 12 13 13 13 14 15 16 21 23 25 27 29 31 32 32 32 33 34 34
3 5 1 2 3 3 3 4 1 6 2 3 3 8 11 4 7 9 13 13 15 17 17 15 13 13 12 13 14 13 14 19 21 23 25 27 29 31 32 32 33 34 34 34
1 4 0 1 2 4 3 2 4 3 3 5 6 7 6 8 7 7 7 14 18 19 21 19 15 13 13 12 12 13 18 18 22 24 26 29 31 32 33 34 35 35 35 35
3 3 4 2 2 5 3 2 3 3 3 4 3 8 8 9 6 8 10 13 19 21 22 20 15 13 12 13 13 18 15 18 21 23 27 30 32 33 34 35 36 36 36 35
0 3 4 7 3 2 1 4 4 4 6 3 3 10 6 10 6 7 17 26 25 20 17 18 15 13 12 16 16 14 15 18 21 25 28 30 32 34 35 36 36 36 35 34
3 1 4 8 2 2 2 4 4 3 2 6 3 8 1 6 9 15 23 30 30 21 17 17 15 14 17 14 13 12 14 18 22 26 28 30 32 34 36 36 36 36 35 33
2 2 6 6 8 2 3 5 5 5 3 4 13 25 29 23 14 18 23 31 32 21 17 20 18 17 12 11 10 11 14 18 22 25 27 30 33 35 36 36 35 34 33 33
3 4 2 7 13 5 12 10 9 11 11 8 25 11 29 26 21 27 31 28 22 16 13 14 16 12 9 8 9 9 14 19 22 25 27 30 33 34 34 34 34 33 32 31
1 3 1 6 5 6 9 16 14 16 16 13 26 31 26 41 31 19 22 20 18 18 15 15 11 8 7 6 5 9 14 18 21 24 27 29 31 32 33 33 33 33 31 30
3 3 3 7 7 12 10 7 9 5 6 7 7 17 2 14 7 14 24 25 25 20 15 10 7 7 6 4 4 10 14 17 20 23 26 28 31 32 32 33 33 31 30 28
5 4 2 4 6 2 7 5 7 11 14 15 14 17 21 19 20 25 30 27 23 16 11 7 8 7 5 1 5 10 13 16 20 23 26 28 31 31 31 32 31 30 28 27
2 4 1 1 2 10 10 4 5 6 11 19 15 18 21 19 14 25 12 16 15 12 7 8 7 6 4 1 5 8 11 15 19 23 26 28 30 30 30 31 30 29 29 27
2 2 1 2 4 7 8 3 5 4 9 8 15 11 7 1 12 11 14 11 9 8 9 9 8 7 4 2 4 8 12 16 20 23 27 29 28 29 29 28 28 28 26 25
4 2 6 7 6 11 14 8 6 2 16 5 9 9 8 4 12 22 19 10 8 9 10 10 10 8 5 1 3 7 12 15 20 23 26 28 27 27 27 27 27 26 26 25
10 10 6 3 5 12 17 9 9 14 16 23 17 26 22 26 21 19 14 12 13 13 14 13 12 8 5 1 3 6 11 16 20 23 25 26 26 26 26 26 26 26 26 26
4 9 6 12 10 7 21 28 38 40 34 38 35 37 29 24 24 22 17 16 16 15 15 15 13 10 6 2 2 6 10 14 18 22 24 24 25 25 25 26 26 26 26 27
6 12 5 2 23 29 41 45 43 38 39 44 37 23 24 27 27 21 18 19 19 19 18 17 15 12 8 4 1 4 9 14 18 21 23 24 25 26 25 23 26 27 26 26
9 13 9 19 32 45 40 50 40 35 32 24 28 32 30 24 22 20 19 20 21 21 21 20 17 13 9 5 2 3 8 13 17 20 23 23 24 25 27 27 24 26 25 22
13 17 10 16 42 33 37 41 24 30 38 39 38 30 27 24 22 19 18 19 21 23 23 23 19 16 11 8 4 2 7 11 16 19 22 24 25 25 25 27 28 23 23 22
Wind_Direction
23 63 57 9 10 246 278 271 274 265 1 326 255 288 291 298 246 258 313 341 310 268 256 251 249 246 244 249 260 271 279 284 288 294 299 301 308 315 317 318 320 322 323 324
25 73 311 280 325 284 192 292 296 283 265 333 326 294 278 271 248 269 317 342 360 5 244 234 233 237 241 249 260 270 277 283 290 294 300 310 315 317 318 320 319 320 322 322
102 89 315 309 31 17 330 279 323 258 318 249 316 297 335 255 266 258 293 303 341 255 233 231 223 224 234 249 260 269 275 282 288 295 304 308 311 314 319 321 323 325 324 323
86 313 27 33 53 105 300 155 258 283 8 281 16 278 310 321 300 246 243 243 238 220 213 217 215 225 239 254 266 272 277 281 289 299 308 314 319 321 323 324 324 324 323 324
309 11 19 21 265 174 261 292 249 258 105 5 357 63 269 357 299 268 234 234 232 235 232 222 224 246 259 264 270 271 276 284 295 306 314 317 318 321 323 325 324 326 325 325
67 39 43 260 288 230 307 226 98 69 101 22 273 84 281 249 224 292 264 238 237 239 235 228 245 262 269 273 273 276 284 292 305 313 316 318 324 327 328 326 325 326 328 329
353 3 314 23 326 215 24 39 344 357 7 234 269 11 247 264 258 243 274 272 245 244 243 246 261 276 279 275 273 281 291 303 312 318 319 324 327 328 326 326 328 330 330 330
80 321 23 9 43 281 19 109 142 250 277 281 32 234 251 224 269 272 267 267 243 236 237 244 264 275 277 277 280 291 299 311 320 319 322 325 327 326 327 328 329 330 330 329
32 275 122 34 26 47 345 40 136 97 75 22 272 288 294 281 291 272 266 265 256 249 243 248 264 279 281 282 286 295 308 315 320 322 323 324 325 327 329 330 332 332 330 327
150 327 240 32 93 41 100 163 32 15 338 296 295 279 240 301 296 321 308 283 284 268 247 248 265 283 285 283 286 298 309 323 323 320 324 326 330 332 333 334 334 332 328 326
132 103 297 42 189 174 33 17 35 127 141 216 299 269 217 242 241 275 293 315 320 294 257 250 264 281 276 281 288 301 320 322 318 323 327 331 332 334 335 334 333 331 328 327
50 136 279 241 98 78 127 189 169 124 272 223 158 262 215 234 247 246 295 304 312 301 258 247 266 272 269 275 289 306 322 320 321 325 330 332 336 336 335 334 333 331 329 329
172 321 341 343 62 17 187 202 147 127 81 214 179 261 298 253 287 296 285 313 323 308 271 261 271 256 273 283 293 312 326 318 322 329 333 337 338 336 335 334 334 332 331 331
149 193 175 208 232 150 211 206 208 155 158 206 236 281 282 287 297 300 311 312 316 309 278 269 260 271 271 274 295 327 316 321 328 332 337 339 339 337 336 335 334 333 333 332
137 228 212 259 264 252 265 242 219 203 219 219 273 258 280 291 298 295 303 315 314 307 291 265 260 266 255 274 310 315 320 327 331 339 341 342 339 337 336 336 336 336 336 335
75 277 80 282 287 262 269 248 232 234 252 257 262 279 265 269 278 291 304 314 309 307 289 275 257 235 234 275 300 320 327 332 339 340 341 341 338 338 339 339 341 340 340 338
141 123 44 270 337 319 292 236 170 213 211 173 221 260 325 296 275 300 311 308 306 303 287 263 228 208 237 256 324 326 331 338 341 342 340 342 341 343 343 342 343 343 343 341
137 101 99 271 354 330 246 217 185 200 255 208 266 274 276 281 297 304 307 301 297 288 279 226 198 203 209 244 327 332 338 341 342 341 342 346 345 346 344 344 346 346 347 348
44 130 278 271 231 297 276 196 152 182 272 248 230 256 269 289 309 299 308 298 275 278 242 195 185 189 178 285 327 336 340 341 342 344 346 349 348 348 347 347 349 351 353 353
86 38 185 106 240 276 216 182 153 151 282 235 200 231 253 35 307 321 318 281 258 229 196 184 179 176 184 265 326 340 344 342 345 350 350 351 350 349 350 349 353 355 354 354
140 147 214 235 251 273 263 192 153 84 292 162 219 258 205 222 271 291 296 264 232 204 186 179 178 183 189 227 340 346 342 345 352 353 353 351 351 352 353 354 355 354 355 355
170 168 201 198 224 277 171 125 185 267 292 302 298 306 290 299 304 294 270 242 213 196 184 185 187 184 189 202 350 343 345 352 354 354 355 353 351 354 358 354 354 354 352 351
210 202 199 197 222 242 209 254 273 282 288 291 293 304 304 300 299 291 255 230 210 196 193 189 188 186 187 189 345 348 350 353 355 355 356 356 354 358 3 357 355 356 353 352
233 217 229 275 251 259 265 275 278 287 288 293 294 300 298 294 294 275 246 221 206 201 196 192 187 189 188 187 177 338 349 355 355 355 356 359 359 358 4 6 357 357 357 354
204 152 216 248 268 275 274 267 279 288 288 288 299 305 298 292 279 265 246 221 210 201 194 192 191 190 187 188 207 330 355 355 357 357 357 1 3 2 358 2 8 1 359 354
186 224 223 250 260 261 280 292 297 296 296 299 304 299 299 285 270 252 236 220 209 202 197 191 191 191 189 192 204 337 351 353 360 359 359 2 4 4 2 359 360 12 4 3